Flag for U.S.A. Weather past 2 weeks in Berkeley, California, U.S.A.

Now
57 °F

Passing clouds.


Feels Like: 54 °F
Forecast: 52 / 71 °F
Wind: 14 mph from West

Location: Metro Oakland International Airport


UV Index: 5 (Moderate)

Visibility: 10 mi


Pressure: 29.94 "Hg

Humidity: 69%

Dew point: 47 °F

Location of BerkeleyLocation

Historic Weather in Berkeley

°F

Berkeley temperature yesterday

Maximum temperature yesterday: 67 °F (at 2:53 PM)
Minimum temperature yesterday: 51 °F (at 1:53 AM)
Average temperature yesterday: 57 °F

Past Weeks' High & Low Weather Summary

 TemperatureHumidityPressure
High78 °F (Apr 7, 2:53 PM)90% (Apr 6, 4:53 AM)30.24 "Hg (Apr 6, 4:53 AM)
Low45 °F (Apr 2, 4:53 AM)37% (Apr 7, 2:53 PM)29.84 "Hg (Apr 1, 7:53 PM)
Average57 °F72%30.03 "Hg
* Reported Mar 31 7:53 PM — Apr 15 7:53 PM, Berkeley, Weather by CustomWeather, © 2014

Note: Actual official high and low records may vary slightly from our data, if they occured in-between our weather recording intervals... More about our weather records

Advertising

Historic Weather Conditions — Data for Previous 24 hours

 ConditionsComfort  
Time TempWeatherWind HumidityBarometerVisibility
7:53 PM
Apr 15
58 °FPassing clouds.10 mph67%29.92 "Hg9 mi
6:53 PM60 °FPassing clouds.10 mph62%29.92 "Hg10 mi
5:53 PM63 °FPassing clouds.16 mph58%29.93 "Hg10 mi
4:53 PM65 °FPassing clouds.15 mph56%29.94 "Hg10 mi
3:53 PM65 °FPassing clouds.14 mph56%29.95 "Hg10 mi
2:53 PM65 °FPassing clouds.12 mph54%29.97 "Hg10 mi
1:53 PM65 °FPassing clouds.9 mph56%29.99 "Hg10 mi
12:53 PM63 °FPassing clouds.9 mph58%30.01 "Hg10 mi
11:53 AM62 °FPassing clouds.8 mph62%30.02 "Hg9 mi
10:53 AM60 °FPassing clouds.6 mph67%30.03 "Hg9 mi
9:53 AM58 °FPassing clouds.3 mph72%30.03 "Hg10 mi
8:53 AM56 °FOvercast.No wind75%30.04 "Hg10 mi
7:53 AM56 °FOvercast.5 mph75%30.04 "Hg10 mi
6:53 AM55 °FOvercast.6 mph80%30.03 "Hg7 mi
5:53 AM55 °FOvercast.10 mph80%30.03 "Hg10 mi
4:53 AM55 °FLow clouds.8 mph80%30.03 "Hg10 mi
3:53 AM54 °FLow clouds.6 mph83%30.04 "Hg10 mi
2:53 AM54 °FLow clouds.6 mph80%30.05 "Hg10 mi
1:53 AM54 °FOvercast.12 mph83%30.07 "Hg10 mi
12:53 AM55 °FOvercast.9 mph80%30.07 "Hg10 mi
11:53 PM
Apr 14
55 °FPassing clouds.8 mph80%30.08 "Hg10 mi
10:53 PM55 °FPartly cloudy.12 mph80%30.09 "Hg10 mi
9:53 PM56 °FPartly cloudy.15 mph77%30.09 "Hg10 mi
Weather by CustomWeather, © 2014

See weather overview